Content
SEND FEEDBACK

Daily
Averages
Monthly
Summary
United States of America

VAN NUYS, CALIFORNIA


Home > North America > United States > California
Elevation: 700 feet     Latitude: 34 11N     Longitude: 118 27W

WEATHER
 
SELECT A DAY
Number of Records: 167,971;   Date Range: 1/1/95 - 9/16/14
 
SHARE

PRINT THIS DATA

[ ← Previous Day ]
WEATHER ALMANAC - FEBRUARY 13, 2013
[ Next Day → ]
[ °C ]   °F
Weather ElementAverageHighLow
Temperature52.3 °F68 °F (1:51 pm)37 °F (6:51 am)
Dewpoint28.1 °F34 °F (11:51 pm)19.9 °F (12:51 pm)
Humidity43.8 %73 % (6:51 am)17 % (12:51 pm)
Barometer30.19 in30.25 in (7:51 am)30.12 in (2:51 pm)
Wind Speed2.2 mph11.5 mph (2:51 pm)
Weather ElementAverage
Visibility10 mi
Wind DirectionNE (40.9 °)

Weather ElementTotal
Precipitation---
Heating Degree Days12.5 (Base 65)
Growing Degree Days2.5 (Base 50)
Averaged from 22 records on February 13, 2013
WEATHER CONDITIONS BREAKOUT
WIND DIRECTION BREAKOUT
WEATHER BY HOUR - FEBRUARY 13, 2013
[ °C ]   °F
Local TimeTemperatureDewpointHumidityBarometerVisibilityWind DirectionWind SpeedGust SpeedPrecipitationEventsConditions
1:51 AM41.0 °F28.0 °F60 %30.23 in10.0 miCalmClear
2:51 AM39.0 °F28.9 °F67 %30.23 in10.0 miCalmClear
3:51 AM39.0 °F28.9 °F67 %30.21 in10.0 miCalmClear
4:51 AM39.0 °F28.0 °F65 %30.22 in10.0 miCalmClear
5:51 AM39.0 °F28.0 °F65 %30.22 in10.0 miCalmClear
6:51 AM37.0 °F28.9 °F73 %30.24 in10.0 miCalmClear
7:51 AM42.1 °F32.0 °F67 %30.25 in10.0 miCalmClear
8:51 AM48.9 °F28.0 °F44 %30.25 in10.0 miCalmClear
9:51 AM54.0 °F28.0 °F37 %30.25 in10.0 miCalmClear
10:51 AM61.0 °F25.0 °F25 %30.24 in10.0 miSE (130°)3.5 mphClear
11:51 AM64.9 °F23.0 °F20 %30.20 in10.0 miCalmClear
12:51 PM66.9 °F19.9 °F17 %30.16 in10.0 miSSE (150°)6.9 mphClear
1:51 PM68.0 °F23.0 °F18 %30.14 in10.0 miSE (140°)5.8 mphClear
2:51 PM66.9 °F28.0 °F23 %30.12 in10.0 miSSE (160°)11.5 mphClear
3:51 PM64.9 °F28.0 °F25 %30.12 in10.0 miSSE (160°)8.1 mphClear
4:51 PM62.1 °F27.0 °F26 %30.12 in10.0 miSE (130°)6.9 mphClear
5:51 PM57.9 °F27.0 °F31 %30.13 in10.0 miNNE (30°)4.6 mphClear
6:51 PM57.0 °F30.0 °F36 %30.14 in10.0 miCalmClear
7:51 PM55.0 °F30.0 °F38 %30.15 in10.0 miCalmClear
8:51 PM50.0 °F33.1 °F52 %30.16 in10.0 miCalmClear
9:51 PM52.0 °F30.9 °F45 %30.16 in10.0 miCalmClear
11:51 PM46.0 °F34.0 °F63 %30.16 in10.0 miCalmClear
Hourly data recorded from KVNY, located miles away from Van Nuys, California







STORIES FROM OUR PARTNERS